WS Maaseik 1 Meer informatie WS Maaseik 1


WS Maaseik 2 Meer informatie WS Maaseik 2


Regen radar Meer informatie rain snow radar


Bezoek onze andere website:

Vorige versie
weerstation Maaseik


Bezoek ook eens deze sites:

Weerstation Geleen



Het weer levert geen direct gevaar op.    Er zijn geen waarschuwingen afgegeven.

15 daagse weersverwachting Deventer (NL)

  • Overzicht
  • Per uur
  • 15 dagen
  • Extra
  • Vergelijk
  • Kaarten
  • Dagkaart
  • Meer »
  • Info
  • Statistieken
  • Directe link
    Temp 6h Neerslag Wind  
 06:05     21:18    Daglengte: 15:13 Vandaag
14:00
21°
 
2
20:00
20°
0.3 mm
1
 06:07     21:17    Daglengte: 15:10 Morgen
02:00
15°
 
3
08:00
16°
3.0 mm
4
14:00
19°
3.8 mm
6
warningclass
20:00
18°
5.4 mm
4
 06:08     21:15    Daglengte: 15:07 Zaterdag 07 Aug
02:00
15°
 
4
08:00
15°
1.1 mm
4
14:00
21°
2.0 mm
4
20:00
18°
8.1 mm
3
 06:10     21:13    Daglengte: 15:03 Zondag 08 Aug
02:00
15°
7.9 mm
4
08:00
15°
6.7 mm
6
Locatie info
Region: Overijssel
Latitude: 52.2510°N
Longitude: 6.1599°E
12 masl
Postcode: 7411 BT
Temp/Neerslag /Baro Onweer/Dauwpunt
    Temp Baro 1h Neerslag Dauwpunt Wind UV Bewolking  
 06:05     21:18    Daglengte: 15:13 Vandaag
14:00
21°
1008.3 hPa
45%
16.1°
2
Windvlaag: 1.8 m/s
19%
15:00
22°
1007.8 hPa
61%
16.6°
2
Windvlaag: 4 m/s
35%
16:00
22°
1007.1 hPa
70%
16.5°
2
Windvlaag: 4.4 m/s
20%
17:00
22°
1006.6 hPa
71%
16.1°
2
Windvlaag: 4.8 m/s
51%
18:00
21°
1006.3 hPa
74%
17.0°
2
Windvlaag: 4.8 m/s
53%
19:00
20°
1005.9 hPa
76%
16.6°
2
Windvlaag: 4.7 m/s
56%
20:00
20°
1005.7 hPa 0.3 mm
72%
15.8°
1
Windvlaag: 3.1 m/s
64%
21:00
18°
1005.5 hPa
19%
15.5°
1
Windvlaag: 2.5 m/s
52%
22:00
17°
1005.4 hPa
13%
15.3°
2
Windvlaag: 1.3 m/s
12%
23:00
16°
1005.0 hPa
13%
14.8°
2
Windvlaag: 1.5 m/s
8%
 06:07     21:17    Daglengte: 15:10 Morgen
00:00
16°
1004.5 hPa
13%
14.8°
3
Windvlaag: 4.6 m/s
9%
01:00
15°
1003.8 hPa
13%
14.6°
3
Windvlaag: 4.6 m/s
8%
02:00
15°
1003.3 hPa
17%
14.4°
3
Windvlaag: 4.4 m/s
54%
03:00
15°
1002.7 hPa 0.4 mm
74%
14.5°
4
Windvlaag: 6 m/s
76%
04:00
15°
1002.2 hPa
78%
14.6°
3
Windvlaag: 6.5 m/s
58%
05:00
15°
1001.6 hPa
60%
14.1°
3
Windvlaag: 6.5 m/s
53%
06:00
15°
1001.5 hPa
26%
14.1°
4
Windvlaag: 6.4 m/s
82%
07:00
15°
1001.3 hPa 1.3 mm
82%
14.1°
4
Windvlaag: 6.9 m/s
86%
08:00
16°
1001.2 hPa 1.3 mm
82%
14.2°
4
Windvlaag: 8 m/s
78%
09:00
16°
1001.2 hPa
82%
14.9°
5
Windvlaag: 7.8 m/s
74%
10:00
17°
1001.3 hPa 0.6 mm
81%
15.8°
4
Windvlaag: 8 m/s
86%
11:00
18°
1001.4 hPa 1.0 mm
82%
15.4°
4
Windvlaag: 7.9 m/s
67%
12:00
18°
1001.6 hPa
82%
15.8°
5
Windvlaag: 7.2 m/s
77% warningclass
13:00
19°
1001.5 hPa 0.8 mm
82%
16.2°
5
Windvlaag: 7.8 m/s
82%
14:00
19°
1001.6 hPa 1.4 mm
82%
16.1°
6
Windvlaag: 8.9 m/s
83% warningclass
15:00
19°
1001.6 hPa 1.0 mm
82%
15.8°
6
Windvlaag: 8.7 m/s
79% warningclass
16:00
19°
1001.7 hPa 1.2 mm
82%
15.3°
6
Windvlaag: 8.9 m/s
34%
17:00
19°
1002.0 hPa 1.0 mm
81%
15.7°
6
Windvlaag: 9.5 m/s
39%
18:00
18°
1002.5 hPa 1.2 mm
82%
14.4°
6
Windvlaag: 9.1 m/s
13%
19:00
18°
1002.8 hPa 1.0 mm
75%
14.2°
5
Windvlaag: 7.3 m/s
15%
20:00
18°
1003.2 hPa
15%
13.8°
4
Windvlaag: 6.3 m/s
8%
21:00
17°
1003.6 hPa
16%
13.3°
4
Windvlaag: 6.3 m/s
7%
22:00
16°
1004.0 hPa
14%
12.8°
3
Windvlaag: 6.2 m/s
7%
23:00
16°
1004.2 hPa
14%
11.9°
4
Windvlaag: 6.5 m/s
20%
 06:08     21:15    Daglengte: 15:07 Zaterdag 07 Aug
00:00
16°
1004.3 hPa
14%
11.4°
4
Windvlaag: 8 m/s
36%
01:00
15°
1004.3 hPa
14%
11.1°
4
Windvlaag: 8 m/s
33%
02:00
15°
1004.4 hPa
16%
11.3°
4
Windvlaag: 7.7 m/s
42%
03:00
15°
1004.2 hPa
66%
11.9°
4
Windvlaag: 7.6 m/s
41%
04:00
14°
1004.2 hPa
75%
12.2°
4
Windvlaag: 7 m/s
27%
05:00
14°
1004.1 hPa
15%
12.5°
4
Windvlaag: 6.8 m/s
10%
06:00
14°
1004.1 hPa
20%
12.4°
4
Windvlaag: 7 m/s
9%
07:00
14°
1004.1 hPa
65%
12.7°
4
Windvlaag: 7.4 m/s
17%
08:00
15°
1004.2 hPa 1.1 mm
74%
12.3°
4
Windvlaag: 7.8 m/s
17%
09:00
16°
1004.2 hPa
70%
12.4°
3
Windvlaag: 5.7 m/s
16%
10:00
16°
1004.0 hPa
27%
12.1°
4
Windvlaag: 6 m/s
16%
11:00
18°
1003.5 hPa 2.0 mm
100%
9.9°
3
Windvlaag: 5.5 m/s
39%
12:00
19°
1003.0 hPa
100%
9.1°
4
Windvlaag: 4.2 m/s
42%
13:00
20°
1002.4 hPa
32%
8.8°
3
Windvlaag: 5.5 m/s
59%
14:00
21°
1001.8 hPa
96%
8.4°
4
Windvlaag: 5.8 m/s
66%
15:00
21°
1001.5 hPa 1.5 mm
97%
8.4°
4
Windvlaag: 5.9 m/s
46%
16:00
21°
1001.1 hPa 1.6 mm
100%
8.1°
4
Windvlaag: 4.8 m/s
28%
17:00
21°
1001.0 hPa 1.6 mm
100%
8.0°
3
Windvlaag: 6.5 m/s
69%
18:00
20°
1000.8 hPa 1.2 mm
100%
7.4°
3
Windvlaag: 5.5 m/s
62%
19:00
20°
1000.7 hPa 1.0 mm
97%
7.5°
3
Windvlaag: 6.3 m/s
68%
20:00
18°
1001.0 hPa 1.2 mm
95%
7.5°
3
Windvlaag: 5.6 m/s
77%
21:00
17°
1000.9 hPa 1.5 mm
86%
10.7°
2
Windvlaag: 3.3 m/s
74%
22:00
16°
1001.2 hPa 1.9 mm
21%
11.5°
3
Windvlaag: 6.9 m/s
82%
23:00
16°
1001.2 hPa 2.1 mm
49%
12.1°
3
Windvlaag: 7.6 m/s
79%
 06:10     21:13    Daglengte: 15:03 Zondag 08 Aug
00:00
16°
1001.4 hPa 2.4 mm
100%
12.9°
3
Windvlaag: 5.8 m/s
78%
01:00
16°
1001.3 hPa
50%
11.3°
4
Windvlaag: 7.9 m/s
44%
02:00
15°
1001.3 hPa
26%
12.4°
4
Windvlaag: 8.5 m/s
46%
03:00
15°
1001.4 hPa 1.8 mm
24%
12.7°
5
Windvlaag: 9.1 m/s
93%
04:00
15°
1001.4 hPa 2.1 mm
21%
13.0°
4
Windvlaag: 8.9 m/s
93%
05:00
15°
1001.3 hPa
32%
12.9°
5
Windvlaag: 9.4 m/s
92%
06:00
15°
1001.3 hPa
84%
13.3°
5
Windvlaag: 9.4 m/s
98%
07:00
15°
1001.5 hPa 1.9 mm
100%
13.3°
5
Windvlaag: 9 m/s
92%
08:00
15°
1002.2 hPa 1.9 mm
98%
12.8°
6
Windvlaag: 9.3 m/s
95%
09:00
15°
1002.6 hPa 0.1 mm
100%
-36.3°
6
Windvlaag: 0 m/s
100%
Temp/Neerslag /Baro Onweer/Dauwpunt
    Temp Baro Neerslag Dauwpunt Wind Bewolking  
 06:05     21:18    Daglengte: 15:13 Vandaag
14:00
21°
1008.3 hPa   16.1°
2
19%
17:00
22°
1006.6 hPa   16.1°
2
51%
20:00
20°
1005.7 hPa 0.3 mm 15.8°
1
64%
23:00
16°
1005.0 hPa   14.8°
2
8%
 06:07     21:17    Daglengte: 15:10 Morgen
02:00
15°
1003.3 hPa   14.4°
3
54%
05:00
15°
1001.6 hPa 0.4 mm 14.1°
3
53%
08:00
16°
1001.2 hPa 2.6 mm 14.2°
4
78%
11:00
18°
1001.4 hPa 1.6 mm 15.4°
4
67%
14:00
19°
1001.6 hPa 2.2 mm 16.1°
6
83% warningclass
17:00
19°
1002.0 hPa 3.3 mm 15.7°
6
39%
20:00
18°
1003.2 hPa 2.2 mm 13.8°
4
8%
23:00
16°
1004.2 hPa   11.9°
4
20%
 06:08     21:15    Daglengte: 15:07 Zaterdag 07 Aug
02:00
15°
1004.4 hPa   11.3°
4
42%
05:00
14°
1004.1 hPa   12.5°
4
10%
08:00
15°
1004.2 hPa 1.1 mm 12.3°
4
17%
11:00
18°
1003.5 hPa 2.0 mm 9.9°
3
39%
14:00
21°
1001.8 hPa   8.4°
4
66%
17:00
21°
1001.0 hPa 4.8 mm 8.0°
3
69%
20:00
18°
1001.0 hPa 3.3 mm 7.5°
3
77%
23:00
16°
1001.2 hPa 5.5 mm 12.1°
3
79%
 06:10     21:13    Daglengte: 15:03 Zondag 08 Aug
02:00
15°
1001.3 hPa 2.4 mm 12.4°
4
46%
05:00
15°
1001.3 hPa 3.8 mm 12.9°
5
92%
08:00
15°
1002.2 hPa 5.6 mm 12.8°
6
95%
11:00
16°
1004.3 hPa 2.7 mm 14.8°
8
88%
14:00
19°
1005.9 hPa 2.5 mm 13.8°
8
0%
17:00
19°
1008.4 hPa 12.3 mm 14.0°
8
1%
20:00
17°
1010.3 hPa 13.1 mm 13.1°
7
0%
23:00
15°
1012.5 hPa 13.1 mm 11.2°
6
0%
 06:11     21:11    Daglengte: 15:00 Maandag 09 Aug
02:00
14°
1013.3 hPa 13.1 mm 10.4°
6
0%
05:00
13°
1013.5 hPa 13.1 mm 10.0°
6
0%
08:00
14°
1014.4 hPa 13.1 mm 11.3°
6
0%
11:00
19°
1016.1 hPa 13.2 mm 12.1°
7
0%
14:00
20°
1016.5 hPa 13.7 mm 12.3°
7
1%
17:00
21°
1016.9 hPa 13.8 mm 12.9°
6
1%
20:00
17°
1018.1 hPa 14.6 mm 14.4°
3
1%
23:00
14°
1019.3 hPa 14.6 mm 13.4°
3
1%
 06:13     21:09    Daglengte: 14:56 Dinsdag 10 Aug
02:00
14°
1019.8 hPa 14.6 mm 13.2°
4
1%
05:00
13°
1019.7 hPa 14.6 mm 12.9°
4
1%
08:00
15°
1020.1 hPa 14.6 mm 13.9°
4
1%
11:00
17°
1021.1 hPa 14.6 mm 15.7°
5
1%
14:00
22°
1020.3 hPa 15.1 mm 15.7°
5
1%
17:00
23°
1019.8 hPa 15.3 mm 14.1°
5
1%
20:00
21°
1019.9 hPa 15.4 mm 15.8°
3
1%
23:00
16°
1020.7 hPa 15.4 mm 13.7°
2
1%
 06:15     21:07    Daglengte: 14:52 Woensdag 11 Aug
02:00
15°
1020.1 hPa 15.4 mm 13.0°
3
0%
05:00
14°
1019.5 hPa 15.4 mm 13.0°
3
0%
08:00
16°
1019.8 hPa 15.4 mm 14.1°
3
0%
11:00
21°
1019.9 hPa 15.4 mm 14.7°
5
1%
14:00
24°
1019.7 hPa 15.6 mm 15.0°
6
1%
17:00
24°
1019.9 hPa 16.1 mm 15.5°
5
1%
20:00
21°
1020.4 hPa 16.5 mm 16.6°
3
0%
23:00
17°
1022.0 hPa 16.5 mm 14.5°
1
0%
 06:16     21:05    Daglengte: 14:49 Donderdag 12 Aug
02:00
16°
1022.5 hPa 16.5 mm 13.7°
1
0%
05:00
15°
1022.4 hPa 16.5 mm 13.2°
1
0%
08:00
17°
1023.0 hPa 16.5 mm 14.4°
1
0%
11:00
21°
1023.7 hPa   15.7°
1
0%
14:00
23°
1023.4 hPa 33.3 mm 16.0°
1
0%
20:00
20°
1023.8 hPa 37.4 mm 16.7°
4
0%
 06:18     21:03    Daglengte: 14:45 Vrijdag 13 Aug
02:00
14°
1025.0 hPa 37.9 mm 11.6°
3
0%
08:00
14°
1024.6 hPa 37.9 mm 10.2°
3
0%
14:00
23°
1022.7 hPa 37.9 mm 13.5°
4
0%
20:00
21°
1020.0 hPa 37.9 mm 15.0°
4
0%
 06:20     21:01    Daglengte: 14:41 Zaterdag 14 Aug
02:00
15°
1018.5 hPa 37.9 mm 8.9°
3
0%
08:00
16°
1015.7 hPa 37.9 mm 10.3°
3
0%
14:00
26°
1012.4 hPa 37.9 mm 15.5°
4
0%
20:00
24°
1008.4 hPa 37.9 mm 17.7°
3
0%
 06:21     20:59    Daglengte: 14:38 Zondag 15 Aug
02:00
19°
1006.7 hPa 37.9 mm 16.0°
4
1%
08:00
15°
1013.3 hPa 1.3 mm 12.9°
3
66%
14:00
20°
1013.4 hPa 0.5 mm 13.1°
4
64%
20:00
18°
1013.0 hPa 0.8 mm 13.8°
2
63%
 06:23     20:57    Daglengte: 14:34 Maandag 16 Aug
02:00
14°
1013.3 hPa 0.8 mm 12.1°
2
48%
08:00
15°
1012.9 hPa 0.4 mm 12.5°
3
51%
14:00
21°
1013.6 hPa 0.7 mm 13.9°
4
60%
20:00
18°
1014.4 hPa 0.3 mm 13.9°
3
59%
 06:25     20:55    Daglengte: 14:30 Dinsdag 17 Aug
02:00
14°
1015.3 hPa 0.3 mm 11.8°
2
49%
08:00
15°
1015.3 hPa 0.4 mm 12.6°
3
58%
14:00
21°
1015.8 hPa 0.6 mm 14.1°
4
60%
20:00
19°
1015.6 hPa 1.2 mm 14.2°
2
58%
 06:26     20:53    Daglengte: 14:27 Woensdag 18 Aug
02:00
15°
1015.8 hPa 0.3 mm 12.5°
2
50%
08:00
16°
1015.3 hPa 0.7 mm 13.5°
3
64%
14:00
21°
1015.3 hPa 0.4 mm 14.7°
3
63%
20:00
19°
1015.1 hPa 1.8 mm 14.5°
2
55%
 06:28     20:51    Daglengte: 14:23 Donderdag 19 Aug
02:00
15°
1015.6 hPa 1.7 mm 12.9°
2
51%
08:00
15°
1015.2 hPa 1.1 mm 13.4°
2
60%
14:00
21°
1015.0 hPa 0.4 mm 14.5°
3
61%
20:00
19°
1014.7 hPa 1.2 mm 14.6°
2
59%
 06:29     20:49    Daglengte: 14:20 Vrijdag 20 Aug
02:00
14°
1015.1 hPa 0.4 mm 12.5°
1
48%
08:00
15°
1014.7 hPa 0.4 mm 13.1°
2
46%
  CAPE Lifted Index Hail Supercell Tornado SRH 3km CL BTM PRES CL TOP PRES Swiss DWD icon SMHI TS
 06:05     21:18    Daglengte: 15:13 Vandaag
14:00 231 J/kg -0.1 K 0 % 0 % 0 % 0 m²/s² 0 0 0.59 2
15:00 198 J/kg 0.1 K 0 % 0 % 0 % 0 m²/s² 0 0 0.88 3
16:00 197 J/kg -0.1 K 0 % 0 % 0 % 0 m²/s² 0 0 0.68 2
17:00 189 J/kg -0.3 K 0 % 0 % 0 % 0 m²/s² 0 0 0.54 80
18:00 217 J/kg -0.5 K 0 % 0 % 0 % 0 m²/s² 0 0 0.34 3
19:00 218 J/kg -0.5 K 0 % 0 % 0 % 0 m²/s² 0 0 0.58 80
20:00 205 J/kg -0.5 K 0 % 0 % 0 % 0 m²/s² 0 0 0.79 3
21:00 192 J/kg -0.3 K 0 % 0 % 0 % 0 m²/s² 0 0 1.08 3
22:00 138 J/kg -0.1 K 0 % 0 % 0 % 0 m²/s² 0 0 1.64 2
23:00 69 J/kg 0.4 K 0 % 0 % 0 % 0 m²/s² 0 0 3.25 0
 06:07     21:17    Daglengte: 15:10 Morgen
00:00 0 J/kg 0.2 K 0 % 0 % 0 % 0 m²/s² 0 0 2.9 1
01:00 0 J/kg 0.2 K 0 % 0 % 0 % 0 m²/s² 0 0 2.18 1
02:00 0 J/kg 0.0 K 0 % 0 % 0 % 0 m²/s² 0 0 1.92 3
03:00 0 J/kg -0.3 K 0 % 0 % 0 % 0 m²/s² 0 0 1.68 61
04:00 1 J/kg -0.5 K 0 % 0 % 0 % 0 m²/s² 0 0 1.24 3
05:00 0 J/kg -0.1 K 0 % 0 % 0 % 0 m²/s² 0 0 0.89 3
06:00 0 J/kg 0.1 K 0 % 0 % 0 % 0 m²/s² 0 0 0.4 3
07:00 0 J/kg -0.1 K 0 % 0 % 0 % 0 m²/s² 0 0 0.2 61
08:00 28 J/kg -1.1 K 0 % 0 % 0 % 0 m²/s² 0 0 -0.5 80
09:00 253 J/kg -1.7 K 0 % 0 % 0 % 0 m²/s² 0 0 -0.8 3
10:00 325 J/kg -1.1 K 0 % 0 % 0 % 0 m²/s² 0 0 -0.35 3
11:00 511 J/kg -1.3 K 0 % 0 % 0 % 0 m²/s² 0 0 -0.01 80
12:00 461 J/kg -1.1 K 0 % 0 % 0 % 0 m²/s² 0 0 0.52 95
13:00 575 J/kg -1.6 K 0 % 0 % 0 % 0 m²/s² 0 0 0.14 3
14:00 321 J/kg -0.8 K 0 % 0 % 0 % 0 m²/s² 0 0 0.76 95
15:00 284 J/kg -0.5 K 0 % 0 % 0 % 0 m²/s² 0 0 0.94 95
16:00 305 J/kg -0.6 K 0 % 0 % 0 % 0 m²/s² 0 0 0.9 80
17:00 405 J/kg -1.5 K 0 % 0 % 0 % 0 m²/s² 0 0 0.12 80
18:00 799 J/kg -3.3 K 0 % 0 % 0 % 0 m²/s² 0 0 -1.17 80
19:00 675 J/kg -3.0 K 0 % 0 % 0 % 0 m²/s² 0 0 -0.09 2
20:00 524 J/kg -2.5 K 0 % 0 % 0 % 0 m²/s² 0 0 0.41 2
21:00 295 J/kg -1.5 K 0 % 0 % 0 % 0 m²/s² 0 0 1.56 2
22:00 149 J/kg -0.4 K 0 % 0 % 0 % 0 m²/s² 0 0 2.9 2
23:00 0 J/kg 1.1 K 0 % 0 % 0 % 0 m²/s² 0 0 4.88 3
 06:08     21:15    Daglengte: 15:07 Zaterdag 07 Aug
00:00 0 J/kg 1.7 K 0 % 0 % 0 % 0 m²/s² 0 0 5.66 2
01:00 0 J/kg 2.5 K 0 % 0 % 0 % 0 m²/s² 0 0 6.67 3
02:00 0 J/kg 3.4 K 0 % 0 % 0 % 0 m²/s² 0 0 7.36 2
03:00 0 J/kg 3.2 K 0 % 0 % 0 % 0 m²/s² 0 0 6.59 3
04:00 0 J/kg 3.4 K 0 % 0 % 0 % 0 m²/s² 0 0 6.7 3
05:00 0 J/kg 3.3 K 0 % 0 % 0 % 0 m²/s² 0 0 6.78 2
06:00 0 J/kg 3.3 K 0 % 0 % 0 % 0 m²/s² 0 0 6.6 2
07:00 0 J/kg 3.0 K 0 % 0 % 0 % 0 m²/s² 0 0 5.94 2
08:00 0 J/kg 2.9 K 0 % 0 % 0 % 0 m²/s² 0 0 5.69 80
09:00 25 J/kg 1.5 K 0 % 0 % 0 % 0 m²/s² 0 0 4.05 80
10:00 50 J/kg 1.0 K 0 % 0 % 0 % 0 m²/s² 0 0 3.34 2
11:00 92 J/kg 0.5 K 0 % 0 % 0 % 0 m²/s² 0 0 2.39 2
12:00 150 J/kg 0.2 K 0 % 0 % 0 % 0 m²/s² 0 0 1.67 2
13:00 131 J/kg 0.2 K 0 % 0 % 0 % 0 m²/s² 0 0 1.79 2
14:00 146 J/kg -0.1 K 0 % 0 % 0 % 0 m²/s² 0 0 1.79 2
15:00 213 J/kg -0.5 K 0 % 0 % 0 % 0 m²/s² 0 0 1.3 3
16:00 195 J/kg -0.6 K 0 % 0 % 0 % 0 m²/s² 0 0 1.35 80
17:00 195 J/kg -0.5 K 0 % 0 % 0 % 0 m²/s² 0 0 1.51 80
18:00 160 J/kg -0.3 K 0 % 0 % 0 % 0 m²/s² 0 0 1.92 80
19:00 130 J/kg -0.2 K 0 % 0 % 0 % 0 m²/s² 0 0 2.08 3
20:00 159 J/kg -0.3 K 0 % 0 % 0 % 0 m²/s² 0 0 1.71 3
21:00 246 J/kg -0.9 K 0 % 0 % 0 % 0 m²/s² 0 0 1.11 3
22:00 317 J/kg -1.2 K 0 % 0 % 0 % 0 m²/s² 0 0 0.81 3
23:00 364 J/kg -1.2 K 0 % 0 % 0 % 0 m²/s² 0 0 0.24 3
 06:10     21:13    Daglengte: 15:03 Zondag 08 Aug
00:00 305 J/kg -1.6 K 0 % 0 % 0 % 0 m²/s² 0 0 -0.43 80
01:00 297 J/kg -1.8 K 0 % 0 % 0 % 0 m²/s² 0 0 -1.29 3
02:00 135 J/kg -1.0 K 0 % 0 % 0 % 0 m²/s² 0 0 -0.04 2
03:00 239 J/kg -1.6 K 0 % 0 % 0 % 0 m²/s² 0 0 -1.6 3
04:00 189 J/kg -1.2 K 0 % 0 % 0 % 0 m²/s² 0 0 -1.08 3
05:00 39 J/kg -1.0 K 0 % 0 % 0 % 0 m²/s² 0 0 0.11 3
06:00 94 J/kg -0.6 K 0 % 0 % 0 % 0 m²/s² 0 0 0.45 61
07:00 0 J/kg 0.8 K 0 % 0 % 0 % 0 m²/s² 0 0 1.58 61
08:00 2 J/kg -0.1 K 0 % 0 % 0 % 0 m²/s² 0 0 0.68 80
09:00 0 J/kg 0.0 K 0 % 0 % 0 % 0 m²/s² 0 0 13.83 61
Temp Baro Wind Neerslag
  EWN Forecast EWN WRFDA DWD ICON FMI HIRLAM MET Norway GFS
 06:05     21:18    Daglengte: 15:13 Vandaag
14:00 21.2° 1008.3 hPa 1.7 m/s 0.0 mm 22.0° 1007.4 hPa 1.7 m/s 0.3 mm 22.1° 1008.4 hPa 2.4 m/s -2.0 mm 21.2° 1008.0 hPa 1.6 m/s 0.0 mm 22.6° 1008.2 hPa 1.7 m/s
17:00 21.5° 1006.6 hPa 2.0 m/s 0.0 mm 23.8° 1005.5 hPa 2.3 m/s 1.0 mm 21.0° 1006.8 hPa 2.2 m/s 0.6 mm 21.2° 1006.3 hPa 1.0 m/s 0.0 mm 22.8° 1006.5 hPa 1.7 m/s
20:00 19.9° 1005.7 hPa 1.4 m/s 0.3 mm 22.7° 1004.6 hPa 1.5 m/s 1.2 mm 19.3° 1005.9 hPa 1.3 m/s 0.5 mm 19.8° 1005.6 hPa 1.2 m/s 0.0 mm 20.0° 1005.2 hPa 1.9 m/s
23:00 16.2° 1005.0 hPa 2.1 m/s 0.0 mm 16.7° 1003.7 hPa 2.8 m/s 1.4 mm 15.8° 1005.7 hPa 2.6 m/s -0.0 mm 16.6° 1004.9 hPa 1.5 m/s 0.0 mm 16.0° 1004.7 hPa 3.1 m/s
 06:07     21:17    Daglengte: 15:10 Morgen
02:00 15.3° 1003.3 hPa 2.9 m/s 0.0 mm 14.4° 1002.4 hPa 3.2 m/s 1.4 mm 15.2° 1003.4 hPa 2.9 m/s 0.0 mm 15.6° 1003.0 hPa 2.6 m/s 0.0 mm 14.9° 1003.2 hPa 3.6 m/s
05:00 15.4° 1001.6 hPa 3.2 m/s 0.4 mm 14.4° 1000.9 hPa 2.7 m/s 1.4 mm 15.4° 1001.7 hPa 3.2 m/s 0.9 mm 15.9° 1001.0 hPa 2.9 m/s 0.0 mm 15.3° 1001.8 hPa 4.4 m/s
08:00 15.7° 1001.2 hPa 4.0 m/s 2.6 mm 17.3° 1000.2 hPa 4.9 m/s 2.2 mm 15.5° 1001.5 hPa 3.8 m/s 3.8 mm 15.8° 1000.0 hPa 3.7 m/s 0.0 mm 15.6° 1001.6 hPa 5.8 m/s
11:00 17.6° 1001.4 hPa 4.5 m/s 1.6 mm 19.3° 1000.5 hPa 5.0 m/s 5.6 mm 17.8° 1001.8 hPa 4.4 m/s 0.8 mm 17.6° 1000.3 hPa 4.6 m/s 0.0 mm 16.2° 1002.1 hPa 5.3 m/s
14:00 19.1° 1001.6 hPa 5.6 m/s 2.2 mm 21.5° 1000.7 hPa 6.0 m/s 8.4 mm 19.1° 1002.1 hPa 5.6 m/s 1.7 mm 18.8° 1000.4 hPa 4.9 m/s 0.0 mm 18.6° 1002.1 hPa 7.0 m/s
17:00 19.4° 1002.0 hPa 5.8 m/s 3.3 mm 21.9° 1000.4 hPa 7.3 m/s 9.9 mm 19.5° 1002.9 hPa 4.8 m/s 1.4 mm 18.3° 1000.6 hPa 6.1 m/s 0.0 mm 19.8° 1002.5 hPa 7.7 m/s
20:00 17.9° 1003.2 hPa 4.4 m/s 2.2 mm 19.5° 1001.5 hPa 4.3 m/s 12.2 mm 18.9° 1003.5 hPa 4.2 m/s 0.6 mm 17.3° 1002.3 hPa 5.0 m/s 0.0 mm 17.9° 1003.2 hPa 5.5 m/s
23:00 15.9° 1004.2 hPa 3.7 m/s 0.0 mm 15.2° 1002.6 hPa 4.2 m/s 13.0 mm 16.0° 1004.4 hPa 2.5 m/s 0.0 mm 16.6° 1003.8 hPa 4.8 m/s 0.0 mm 14.2° 1004.4 hPa 3.8 m/s
 06:08     21:15    Daglengte: 15:07 Zaterdag 07 Aug
02:00 14.7° 1004.4 hPa 4.1 m/s 0.0 mm 13.1° 1002.3 hPa 4.3 m/s 13.0 mm 14.8° 1004.6 hPa 3.0 m/s 0.0 mm 15.5° 1004.3 hPa 4.5 m/s 0.0 mm 13.2° 1004.6 hPa 4.4 m/s
05:00 14.3° 1004.1 hPa 3.8 m/s 0.0 mm 11.8° 1002.3 hPa 5.0 m/s 13.0 mm 14.7° 1004.3 hPa 3.2 m/s 0.0 mm 13.9° 1004.3 hPa 3.9 m/s 0.0 mm 12.5° 1004.6 hPa 4.4 m/s
08:00 14.5° 1004.2 hPa 3.5 m/s 1.1 mm 14.6° 1002.4 hPa 5.7 m/s 13.0 mm 15.2° 1004.3 hPa 3.0 m/s 0.4 mm 14.4° 1004.5 hPa 4.5 m/s 0.0 mm 14.1° 1004.5 hPa 3.7 m/s
11:00 18.2° 1003.5 hPa 3.4 m/s 2.0 mm 19.1° 1002.3 hPa 5.5 m/s 13.0 mm 19.0° 1003.6 hPa 3.4 m/s 0.2 mm 18.9° 1003.9 hPa 3.9 m/s
14:00 20.8° 1001.8 hPa 4.0 m/s 0.0 mm 21.9° 1000.9 hPa 5.8 m/s 13.0 mm 20.9° 1002.6 hPa 3.6 m/s 0.1 mm 20.3° 1003.1 hPa 5.4 m/s
17:00 20.8° 1001.0 hPa 3.5 m/s 4.8 mm 22.6° 1000.2 hPa 4.4 m/s 13.0 mm 20.6° 1001.5 hPa 3.4 m/s 0.9 mm 20.8° 1002.5 hPa 5.1 m/s
20:00 18.4° 1001.0 hPa 2.9 m/s 3.3 mm 21.5° 999.7 hPa 2.0 m/s 13.0 mm 18.2° 1001.2 hPa 3.2 m/s 1.3 mm 18.0° 1002.4 hPa 4.7 m/s
23:00 15.9° 1001.2 hPa 2.9 m/s 5.5 mm 15.9° 999.7 hPa 2.7 m/s 13.0 mm 16.1° 1001.3 hPa 2.7 m/s 0.1 mm 15.4° 1002.8 hPa 4.6 m/s
 06:10     21:13    Daglengte: 15:03 Zondag 08 Aug
02:00 15.1° 1001.3 hPa 4.2 m/s 2.4 mm 14.0° 999.7 hPa 2.7 m/s 13.4 mm 15.2° 1001.4 hPa 4.0 m/s 1.4 mm 14.1° 1003.1 hPa 5.4 m/s
05:00 14.5° 1001.3 hPa 5.2 m/s 3.8 mm 14.2° 999.8 hPa 4.9 m/s 14.9 mm 14.5° 1001.4 hPa 4.1 m/s 0.0 mm 13.3° 1002.8 hPa 6.2 m/s
08:00 14.8° 1002.2 hPa 5.8 m/s 5.6 mm 14.6° 1000.8 hPa 5.6 m/s 15.8 mm 15.2° 1002.0 hPa 5.5 m/s 0.5 mm 13.9° 1004.0 hPa 7.2 m/s
11:00 16.5° 1004.3 hPa 7.6 m/s 2.7 mm 16.8° 1004.1 hPa 7.5 m/s 0.6 mm 14.3° 1005.5 hPa 8.0 m/s 11.0 mm
14:00 19.1° 1005.9 hPa 7.9 m/s 2.5 mm 19.1° 1005.9 hPa 7.7 m/s 0.3 mm 19.4° 1006.5 hPa 9.4 m/s 11.2 mm
17:00 19.3° 1008.4 hPa 8.0 m/s 12.3 mm 19.3° 1008.4 hPa 8.0 m/s 12.3 mm
20:00 16.9° 1010.3 hPa 6.6 m/s 13.1 mm 16.9° 1010.3 hPa 6.6 m/s 13.1 mm
23:00 15.0° 1012.5 hPa 5.6 m/s 13.1 mm 15.0° 1012.5 hPa 5.6 m/s 13.1 mm
 06:11     21:11    Daglengte: 15:00 Maandag 09 Aug
02:00 13.9° 1013.3 hPa 5.9 m/s 13.1 mm 13.9° 1013.3 hPa 5.9 m/s 13.1 mm
05:00 12.8° 1013.5 hPa 5.9 m/s 13.1 mm 12.8° 1013.5 hPa 5.9 m/s 13.1 mm
08:00 13.8° 1014.4 hPa 6.2 m/s 13.1 mm 13.8° 1014.4 hPa 6.2 m/s 13.1 mm
11:00 18.5° 1016.1 hPa 7.2 m/s 13.2 mm 18.5° 1016.1 hPa 7.2 m/s 13.2 mm
14:00 20.5° 1016.5 hPa 7.1 m/s 13.7 mm 20.5° 1016.5 hPa 7.1 m/s 13.7 mm
17:00 21.1° 1016.9 hPa 5.8 m/s 13.8 mm 21.1° 1016.9 hPa 5.8 m/s 13.8 mm
20:00 17.5° 1018.1 hPa 3.5 m/s 14.6 mm 17.5° 1018.1 hPa 3.5 m/s 14.6 mm
23:00 14.4° 1019.3 hPa 3.4 m/s 14.6 mm 14.4° 1019.3 hPa 3.4 m/s 14.6 mm
 06:13     21:09    Daglengte: 14:56 Dinsdag 10 Aug
02:00 13.6° 1019.8 hPa 3.8 m/s 14.6 mm 13.6° 1019.8 hPa 3.8 m/s 14.6 mm
05:00 13.3° 1019.7 hPa 4.1 m/s 14.6 mm 13.3° 1019.7 hPa 4.1 m/s 14.6 mm
08:00 15.0° 1020.1 hPa 4.2 m/s 14.6 mm 15.0° 1020.1 hPa 4.2 m/s 14.6 mm
11:00 17.3° 1021.1 hPa 4.5 m/s 14.6 mm 17.3° 1021.1 hPa 4.5 m/s 14.6 mm
14:00 21.5° 1020.3 hPa 4.9 m/s 15.1 mm 21.5° 1020.3 hPa 4.9 m/s 15.1 mm
17:00 22.7° 1019.8 hPa 4.8 m/s 15.3 mm 22.7° 1019.8 hPa 4.8 m/s 15.3 mm
20:00 20.5° 1019.9 hPa 2.9 m/s 15.4 mm 20.5° 1019.9 hPa 2.9 m/s 15.4 mm
23:00 16.2° 1020.7 hPa 2.4 m/s 15.4 mm 16.2° 1020.7 hPa 2.4 m/s 15.4 mm
 06:15     21:07    Daglengte: 14:52 Woensdag 11 Aug
02:00 15.0° 1020.1 hPa 2.7 m/s 15.4 mm 15.0° 1020.1 hPa 2.7 m/s 15.4 mm
05:00 14.1° 1019.5 hPa 2.8 m/s 15.4 mm 14.1° 1019.5 hPa 2.8 m/s 15.4 mm
08:00 16.1° 1019.8 hPa 3.3 m/s 15.4 mm 16.1° 1019.8 hPa 3.3 m/s 15.4 mm
11:00 21.5° 1019.9 hPa 5.2 m/s 15.4 mm 21.5° 1019.9 hPa 5.2 m/s 15.4 mm
14:00 23.9° 1019.7 hPa 5.9 m/s 15.6 mm 23.9° 1019.7 hPa 5.9 m/s 15.6 mm
17:00 23.9° 1019.9 hPa 4.8 m/s 16.1 mm 23.9° 1019.9 hPa 4.8 m/s 16.1 mm
20:00 21.1° 1020.4 hPa 2.7 m/s 16.5 mm 21.1° 1020.4 hPa 2.7 m/s 16.5 mm
23:00 16.7° 1022.0 hPa 1.3 m/s 16.5 mm 16.7° 1022.0 hPa 1.3 m/s 16.5 mm
 06:16     21:05    Daglengte: 14:49 Donderdag 12 Aug
02:00 15.7° 1022.5 hPa 0.5 m/s 16.5 mm 15.7° 1022.5 hPa 0.5 m/s 16.5 mm
05:00 14.8° 1022.4 hPa 0.5 m/s 16.5 mm 14.8° 1022.4 hPa 0.5 m/s 16.5 mm
08:00 17.0° 1023.0 hPa 1.0 m/s 16.5 mm 17.0° 1023.0 hPa 1.0 m/s 16.5 mm
11:00 21.5° 1023.7 hPa 1.4 m/s 16.5 mm 21.5° 1023.7 hPa 1.3 m/s 16.5 mm
14:00 23.3° 1023.4 hPa 1.1 m/s 16.9 mm 23.3° 1023.4 hPa 1.1 m/s 16.9 mm
20:00 20.0° 1023.8 hPa 4.1 m/s 18.9 mm 20.0° 1023.8 hPa 4.1 m/s 18.9 mm
 06:18     21:03    Daglengte: 14:45 Vrijdag 13 Aug
02:00 13.9° 1025.0 hPa 3.3 m/s 18.9 mm 13.9° 1025.0 hPa 3.3 m/s 18.9 mm
08:00 14.2° 1024.6 hPa 3.5 m/s 18.9 mm 14.2° 1024.6 hPa 3.5 m/s 18.9 mm
14:00 23.3° 1022.7 hPa 4.4 m/s 18.9 mm 23.3° 1022.7 hPa 4.4 m/s 18.9 mm
20:00 20.6° 1020.0 hPa 3.8 m/s 18.9 mm 20.6° 1020.0 hPa 3.8 m/s 18.9 mm
 06:20     21:01    Daglengte: 14:41 Zaterdag 14 Aug
02:00 14.9° 1018.5 hPa 3.5 m/s 18.9 mm 14.9° 1018.5 hPa 3.5 m/s 18.9 mm
08:00 15.7° 1015.7 hPa 3.1 m/s 18.9 mm 15.7° 1015.7 hPa 3.1 m/s 18.9 mm
14:00 26.4° 1012.4 hPa 4.0 m/s 18.9 mm 26.4° 1012.4 hPa 4.0 m/s 18.9 mm
20:00 24.1° 1008.4 hPa 3.4 m/s 18.9 mm 24.1° 1008.4 hPa 3.4 m/s 18.9 mm
 06:21     20:59    Daglengte: 14:38 Zondag 15 Aug
02:00 19.3° 1006.7 hPa 4.0 m/s 19.0 mm 19.3° 1006.7 hPa 4.0 m/s 19.0 mm
08:00 15.0° 1013.3 hPa 2.6 m/s 1.3 mm
14:00 20.3° 1013.4 hPa 3.7 m/s 0.5 mm
20:00 18.2° 1013.0 hPa 2.1 m/s 0.8 mm
 06:23     20:57    Daglengte: 14:34 Maandag 16 Aug
02:00 14.4° 1013.3 hPa 1.7 m/s 0.8 mm
08:00 14.8° 1012.9 hPa 2.6 m/s 0.4 mm
14:00 21.1° 1013.6 hPa 4.1 m/s 0.7 mm
20:00 18.3° 1014.4 hPa 2.5 m/s 0.3 mm
 06:25     20:55    Daglengte: 14:30 Dinsdag 17 Aug
02:00 14.1° 1015.3 hPa 2.2 m/s 0.3 mm
08:00 14.8° 1015.3 hPa 2.9 m/s 0.4 mm
14:00 20.8° 1015.8 hPa 3.9 m/s 0.6 mm
20:00 18.6° 1015.6 hPa 2.1 m/s 1.2 mm
 06:26     20:53    Daglengte: 14:27 Woensdag 18 Aug
02:00 14.8° 1015.8 hPa 2.0 m/s 0.3 mm
08:00 15.6° 1015.3 hPa 2.7 m/s 0.7 mm
14:00 21.2° 1015.3 hPa 3.3 m/s 0.4 mm
20:00 18.8° 1015.1 hPa 2.4 m/s 1.8 mm
 06:28     20:51    Daglengte: 14:23 Donderdag 19 Aug
02:00 14.9° 1015.6 hPa 1.9 m/s 1.7 mm
08:00 15.4° 1015.2 hPa 1.7 m/s 1.1 mm
14:00 20.7° 1015.0 hPa 2.5 m/s 0.4 mm
20:00 18.7° 1014.7 hPa 1.8 m/s 1.2 mm
 06:29     20:49    Daglengte: 14:20 Vrijdag 20 Aug
02:00 14.3° 1015.1 hPa 1.2 m/s 0.4 mm
08:00 14.7° 1014.7 hPa 1.8 m/s 0.4 mm
FMI Hirlam - 7.5 km EWN WRFDA - 12 km DWD ICON - 7 km GFS - 25 km Basiskaart






























































Updatetijd (Europe/Brussels) Resolutie Lengte Stap
FMI Hirlam 07:00, 13:00, 19:00, 01:00 7.5 km 49h 1h
EWN WRFDA 04:15, 10:15, 16:15, 22:15 12 km 73h 1h
DWD ICON 11:45, 17:45, 23:45, 05:45 7 km 75h 1h
GFS 08:30, 14:30, 20:30, 02:30 25 km 237h 3h
30+ mm
25-30 mm
20-25 mm
15-20 mm
10-15 mm
6-10 mm
4-6 mm
2-4 mm
1-2 mm
0.5-1 mm
0.2-0.5 mm
0.1-0.2 mm
30+ mm
25-30 mm
20-25 mm
15-20 mm
10-15 mm
6-10 mm
4-6 mm
2-4 mm
1-2 mm
0.5-1 mm
0.2-0.5 mm
0.1-0.2 mm
Sneeuwval
Natte sneeuw
Hagel
Vorst
30+ mm
25-30 mm
20-25 mm
15-20 mm
10-15 mm
6-10 mm
4-6 mm
2-4 mm
1-2 mm
0.5-1 mm
0.2-0.5 mm
0.1-0.2 mm
Sneeuwval
Natte sneeuw
Hagel
Vorst
Onweer
50 mm
40 mm
30 mm
26 mm
22 mm
18 mm
14 mm
10 mm
9 mm
8 mm
7 mm
6 mm
5 mm
4.5 mm
4 mm
3.5 mm
3 mm
2.5 mm
2 mm
1.5 mm
1 mm
0.8 mm
0.6 mm
0.4 mm
0.2 mm
0.05 mm
35°
30°
25°
20°
15°
10°
-5°
-10°
-15°
-20°
-25°
-30°
-35°
33> m/s
29 m/s
25 m/s
21 m/s
17 m/s
14 m/s
11 m/s
8 m/s
5 m/s
3 m/s
0 m/s
2600 J/kg
2400 J/kg
2200 J/kg
2000 J/kg
1800 J/kg
1600 J/kg
1400 J/kg
1200 J/kg
1000 J/kg
800 J/kg
600 J/kg
400 J/kg
200 J/kg
70 dBZ
65 dBZ
60 dBZ
55 dBZ
50 dBZ
45 dBZ
40 dBZ
35 dBZ
30 dBZ
25 dBZ
20 dBZ
15 dBZ
10 dBZ
5 dBZ
-1 K
-2 K
-3 K
-4 K
-5 K
-6 K
-7 K
-8 K
-9 K
950 m²/s²
900 m²/s²
850 m²/s²
800 m²/s²
750 m²/s²
700 m²/s²
650 m²/s²
600 m²/s²
550 m²/s²
500 m²/s²
450 m²/s²
400 m²/s²
350 m²/s²
300 m²/s²
250 m²/s²
200 m²/s²
150 m²/s²
100 m²/s²
46 m/s
44 m/s
42 m/s
40 m/s
38 m/s
36 m/s
34 m/s
32 m/s
30 m/s
28 m/s
26 m/s
24 m/s
22 m/s
20 m/s
16 m/s
12 m/s
8 m/s
4 m/s
30 m/s
28 m/s
26 m/s
24 m/s
22 m/s
20 m/s
18 m/s
16 m/s
14 m/s
12 m/s
10 m/s
8 m/s
6 m/s
4 m/s
2 m/s
3.0
2.8
2.6
2.4
2.2
2.0
1.8
1.6
1.4
1.2
1.0
0.8
0.6
0.4
0.2
15
14
13
12
11
10
9
8
7
6
5
4
3
2
1
90%
80%
70%
60%
50%
40%
30%
20%
10%
42
40
38
36
34
32
30
28
26
24
22
20
18
16
14
12
90+ cm
80-90 cm
70-80 cm
60-70 cm
50-60 cm
40-50 cm
30-40 cm
20-30 cm
10-20 cm
1-10 cm
Sneeuwval
Natte sneeuw
Regen
>120 mm
115 mm
110 mm
105 mm
100 mm
95 mm
90 mm
85 mm
80 mm
75 mm
70 mm
65 mm
60 mm
55 mm
50 mm
45 mm
45 mm
40 mm
35 mm
30 mm
25 mm
20 mm
15 mm
10 mm
5 mm
0.1 mm
960 hPa
880 hPa
800 hPa
720 hPa
640 hPa
560 hPa
584 gpdm